User: anonymous   Login
Location: Podia
(1.5569°N, 32.3469°E)
Time: 12:12:58
(UTC+00:00)
Language:

Tiros 1 despin weight - Orbit

View from above orbital plane
View from above orbital plane
View from above satellite
View from above satellite

Ground track
Ground track

The orbit data is extracted from the following two-line orbital elements,

1   115U 60002D   20270.07579549  .00000015  00000-0  28860-4 0  9996
2   115  48.1662 150.3674 0034992 331.6176  28.2831 14.83619897227917
Epoch (UTC): 26 September 2020 01:49:08
Eccentricity: 0.0034992
inclination: 48.1662°
perigee height: 593 km
apogee height: 642 km
right ascension of ascending node: 150.3674°
argument of perigee: 331.6176°
revolutions per day: 14.83619897
mean anomaly at epoch: 28.2831°
orbit number at epoch: 22791

The dashed part of the orbit path shows where the satellite is in the earth's shadow,  

DLR